Weather History for K40J - February, 2013

Change the Weather History Date:

Tuesday, February 26, 2013

  Actual Average (KCTY) Record (KCTY)
Temperature  
Mean Temperature 63 °F 59 °F  
Max Temperature 71 °F 73 °F 82 °F (2001)
Min Temperature 55 °F 45 °F 39 °F (1999)
Degree Days  
Heating Degree Days 2 7  
Month to date heating degree days 227  
Since 1 July heating degree days 1105  
Cooling Degree Days 0 1  
Month to date cooling degree days 20  
Year to date cooling degree days 31  
Growing Degree Days 13 (Base 50)    
Moisture  
Dew Point 54 °F    
Average Humidity 68    
Maximum Humidity 94    
Minimum Humidity 38    
Precipitation  
Precipitation 0.62 in 0.15 in 1.27 in (2014)
Month to date precipitation 2.93  
Year to date precipitation 6.97  
Sea Level Pressure  
Sea Level Pressure 29.74 in    
Wind  
Wind Speed 14 mph (SSW)    
Max Wind Speed 28 mph    
Max Gust Speed 40 mph    
Visibility 9 miles    
Events Rain    
T = Trace of Precipitation, MM = Missing Value Source: NWS Daily Summary

Daily Weather History Graph

Daily Weather History Graph

Search for Another Location

Airport or City:

Trip Planner

Search our weather history database for the weather conditions in past years. The results will help you decide how hot, cold, wet, or windy it might be!

Date:

Astronomy

Feb. 26, 2013 Rise Set
Actual Time 7:03 AM EST 6:31 PM EST
Civil Twilight 6:39 AM EST 6:55 PM EST
Nautical Twilight 6:11 AM EST 7:23 PM EST
Astronomical Twilight 5:43 AM EST 7:51 PM EST
Moon 7:37 PM EST (2/26) 7:12 AM EST (2/26)
Length of Visible Light 12h 16m
Length of Day
11h 28m
Full, 99% of the Moon is Illuminated
Feb 26
Full
Mar 4
Last Quarter
Mar 11
New
Mar 19
First Quarter
Mar 27
Full

Hourly Weather History & Observations

Time (EST) Temp. Dew Point Humidity Pressure Visibility Wind Dir Wind Speed Gust Speed Precip Events Conditions
12:15 AM 62.6 °F 60.8 °F 94% 29.75 in 10.0 mi SE 11.5 mph 16.1 mph N/A   Overcast
12:35 AM 62.6 °F 60.8 °F 94% 29.75 in 10.0 mi SE 10.4 mph 17.3 mph N/A   Overcast
12:53 AM 63.0 °F 61.0 °F 93% 29.73 in - ESE 9.2 mph - N/A   Unknown
12:55 AM 62.6 °F 60.8 °F 94% 29.74 in 10.0 mi ESE 9.2 mph - N/A   Overcast
1:15 AM 64.4 °F 60.8 °F 88% 29.73 in 10.0 mi SE 10.4 mph - N/A   Overcast
1:35 AM 64.4 °F 60.8 °F 88% 29.73 in 10.0 mi SE 9.2 mph - N/A   Overcast
1:53 AM 64.0 °F 62.1 °F 93% 29.70 in - SE 9.2 mph - N/A   Unknown
1:55 AM 64.4 °F 62.6 °F 94% 29.72 in 7.0 mi SE 8.1 mph - N/A   Overcast
2:15 AM 64.4 °F 62.6 °F 94% 29.71 in 7.0 mi ESE 9.2 mph - N/A   Overcast
2:35 AM 64.4 °F 62.6 °F 94% 29.70 in 7.0 mi SE 10.4 mph - N/A   Overcast
2:53 AM 64.9 °F 63.0 °F 93% 29.68 in - ESE 12.7 mph - N/A   Unknown
2:55 AM 64.4 °F 62.6 °F 94% 29.69 in 7.0 mi SE 10.4 mph - N/A   Overcast
3:15 AM 64.4 °F 62.6 °F 94% 29.68 in 7.0 mi SE 10.4 mph - N/A   Mostly Cloudy
3:35 AM 66.2 °F 62.6 °F 88% 29.69 in 10.0 mi SE 6.9 mph - N/A   Scattered Clouds
3:53 AM 66.0 °F 64.0 °F 93% 29.68 in - SE 6.9 mph - N/A   Unknown
3:55 AM 66.2 °F 62.6 °F 88% 29.69 in 7.0 mi SE 6.9 mph - N/A Rain Light Rain
4:15 AM 66.2 °F 62.6 °F 88% 29.66 in 7.0 mi SE 9.2 mph - N/A   Mostly Cloudy
4:35 AM 68.0 °F 64.4 °F 88% 29.63 in 7.0 mi SE 12.7 mph - N/A Rain Light Rain
4:53 AM 66.9 °F 64.0 °F 90% 29.61 in - SE 17.3 mph 23.0 mph 0.01 in   Unknown
4:55 AM 68.0 °F 64.4 °F 88% 29.61 in 7.0 mi SE 15.0 mph 19.6 mph 0.01 in Rain Rain
5:15 AM 68.0 °F 64.4 °F 88% 29.61 in 7.0 mi SSE 13.8 mph 19.6 mph 0.01 in Rain Light Rain
5:35 AM 68.0 °F 64.4 °F 88% 29.62 in 7.0 mi SSE 17.3 mph 21.9 mph 0.02 in Rain Rain
5:53 AM 69.1 °F 66.0 °F 90% 29.59 in - SSE 17.3 mph 31.1 mph 0.06 in   Unknown
5:55 AM 69.8 °F 64.4 °F 83% 29.61 in 5.0 mi SSE 15.0 mph 26.5 mph 0.06 in Rain Rain
6:35 AM 69.8 °F 68.0 °F 94% 29.64 in 1.5 mi South 24.2 mph 36.8 mph 0.31 in Rain Light Rain
6:53 AM 70.0 °F 68.0 °F 93% 29.60 in - SSE 10.4 mph 24.2 mph 0.55 in   Unknown
6:55 AM 69.8 °F 66.2 °F 88% 29.61 in 7.0 mi South 9.2 mph 21.9 mph 0.44 in Rain Light Rain
7:15 AM 69.8 °F 66.2 °F 88% 29.63 in 10.0 mi SSW 12.7 mph 17.3 mph N/A   Overcast
7:35 AM 68.0 °F 64.4 °F 88% 29.64 in 7.0 mi SW 16.1 mph 21.9 mph N/A   Overcast
7:53 AM 66.9 °F 62.1 °F 84% 29.65 in - SSW 16.1 mph 24.2 mph N/A   Unknown
7:55 AM 66.2 °F 62.6 °F 88% 29.66 in 7.0 mi SW 12.7 mph - N/A Rain Light Rain
8:15 AM 66.2 °F 59.0 °F 78% 29.67 in 7.0 mi SW 15.0 mph - N/A   Overcast
8:35 AM 64.4 °F 57.2 °F 77% 29.70 in 5.0 mi SW 15.0 mph 21.9 mph N/A   Haze
8:53 AM 64.9 °F 57.9 °F 78% 29.69 in - SW 12.7 mph - N/A   Unknown
8:55 AM 64.4 °F 55.4 °F 73% 29.70 in 7.0 mi WSW 12.7 mph - N/A   Overcast
9:15 AM 68.0 °F 55.4 °F 64% 29.71 in 7.0 mi SW 13.8 mph 18.4 mph N/A   Mostly Cloudy
9:35 AM 69.8 °F 51.8 °F 53% 29.72 in 7.0 mi WSW 15.0 mph 18.4 mph N/A   Scattered Clouds
9:53 AM 68.0 °F 55.0 °F 63% 29.72 in - SW 15.0 mph - N/A   Unknown
9:55 AM 68.0 °F 51.8 °F 56% 29.74 in 7.0 mi WSW 12.7 mph 21.9 mph N/A   Mostly Cloudy
10:15 AM 69.8 °F 51.8 °F 53% 29.74 in 7.0 mi SW 15.0 mph 21.9 mph N/A   Mostly Cloudy
10:35 AM 69.8 °F 50.0 °F 49% 29.74 in 7.0 mi SW 16.1 mph 23.0 mph N/A   Scattered Clouds
10:53 AM 70.0 °F 53.1 °F 55% 29.73 in - SW 16.1 mph 28.8 mph N/A   Unknown
10:55 AM 69.8 °F 46.4 °F 43% 29.75 in 10.0 mi WSW 17.3 mph 31.1 mph N/A   Clear
11:15 AM 71.6 °F 44.6 °F 38% 29.75 in 10.0 mi WSW 18.4 mph 27.6 mph N/A   Clear
11:35 AM 71.6 °F 44.6 °F 38% 29.76 in 10.0 mi SW 25.3 mph 29.9 mph N/A   Clear
11:53 AM 70.0 °F 53.1 °F 55% 29.75 in - SW 21.9 mph 34.5 mph N/A   Unknown
11:55 AM 69.8 °F 46.4 °F 43% 29.77 in 10.0 mi WSW 23.0 mph 34.5 mph N/A   Clear
12:15 PM 69.8 °F 48.2 °F 46% 29.76 in 10.0 mi WSW 21.9 mph 32.2 mph N/A   Clear
12:35 PM 69.8 °F 48.2 °F 46% 29.76 in 7.0 mi SW 24.2 mph 34.5 mph N/A   Clear
12:53 PM 71.1 °F 54.0 °F 55% 29.75 in - SW 26.5 mph 33.4 mph N/A   Unknown
12:55 PM 71.6 °F 48.2 °F 43% 29.77 in 10.0 mi SW 27.6 mph 33.4 mph N/A   Clear
1:15 PM 69.8 °F 48.2 °F 46% 29.76 in 7.0 mi SW 23.0 mph 33.4 mph N/A   Scattered Clouds
1:35 PM 69.8 °F 46.4 °F 43% 29.77 in 10.0 mi WSW 24.2 mph 35.7 mph N/A   Scattered Clouds
1:53 PM 70.0 °F 51.1 °F 51% 29.75 in - SW 21.9 mph 40.3 mph N/A   Unknown
1:55 PM 69.8 °F 44.6 °F 40% 29.77 in 10.0 mi WSW 18.4 mph 38.0 mph N/A   Scattered Clouds
2:15 PM 69.8 °F 44.6 °F 40% 29.77 in 10.0 mi WSW 25.3 mph 34.5 mph N/A   Scattered Clouds
2:35 PM 69.8 °F 44.6 °F 40% 29.76 in 10.0 mi SW 24.2 mph 31.1 mph N/A   Scattered Clouds
2:53 PM 69.1 °F 51.1 °F 53% 29.73 in - SW 25.3 mph 32.2 mph N/A   Unknown
2:55 PM 69.8 °F 44.6 °F 40% 29.75 in 10.0 mi SW 23.0 mph 31.1 mph N/A   Clear
3:15 PM 69.8 °F 44.6 °F 40% 29.75 in 10.0 mi WSW 24.2 mph 33.4 mph N/A   Clear
3:35 PM 69.8 °F 44.6 °F 40% 29.74 in 10.0 mi SW 23.0 mph 28.8 mph N/A   Clear
3:53 PM 69.1 °F 52.0 °F 54% 29.73 in - SW 23.0 mph 32.2 mph N/A   Unknown
3:55 PM 68.0 °F 46.4 °F 46% 29.74 in 10.0 mi SW 19.6 mph 31.1 mph N/A   Clear
4:15 PM 68.0 °F 46.4 °F 46% 29.74 in 10.0 mi SW 20.7 mph 27.6 mph N/A   Clear
4:35 PM 68.0 °F 46.4 °F 46% 29.74 in 10.0 mi SW 21.9 mph 29.9 mph N/A   Clear
4:53 PM 66.0 °F 52.0 °F 60% 29.73 in - SW 21.9 mph 33.4 mph N/A   Unknown
4:55 PM 66.2 °F 48.2 °F 52% 29.75 in 10.0 mi SW 18.4 mph 32.2 mph N/A   Scattered Clouds
5:15 PM 66.2 °F 46.4 °F 49% 29.75 in 10.0 mi SW 20.7 mph 28.8 mph N/A   Clear
5:35 PM 64.4 °F 48.2 °F 56% 29.77 in 10.0 mi WSW 20.7 mph 32.2 mph N/A   Clear
5:53 PM 63.0 °F 52.0 °F 67% 29.75 in - SW 19.6 mph 28.8 mph N/A   Unknown
5:55 PM 64.4 °F 48.2 °F 56% 29.77 in 10.0 mi SW 17.3 mph 25.3 mph N/A   Clear
6:15 PM 62.6 °F 48.2 °F 59% 29.78 in 10.0 mi SW 16.1 mph 25.3 mph N/A   Clear
6:35 PM 60.8 °F 50.0 °F 68% 29.79 in 10.0 mi SW 12.7 mph 23.0 mph N/A   Clear
6:53 PM 60.1 °F 52.0 °F 75% 29.78 in - SW 13.8 mph - N/A   Unknown
6:55 PM 60.8 °F 50.0 °F 68% 29.79 in 10.0 mi SW 13.8 mph 23.0 mph N/A   Clear
7:15 PM 60.8 °F 50.0 °F 68% 29.80 in 10.0 mi SW 12.7 mph 18.4 mph N/A   Clear
7:35 PM 60.8 °F 48.2 °F 63% 29.81 in 10.0 mi SW 15.0 mph - N/A   Clear
7:53 PM 59.0 °F 51.1 °F 75% 29.80 in - SW 11.5 mph - N/A   Unknown
7:55 PM 60.8 °F 48.2 °F 63% 29.81 in 10.0 mi SW 13.8 mph - N/A   Clear
8:15 PM 60.8 °F 48.2 °F 63% 29.82 in 10.0 mi SW 13.8 mph - N/A   Clear
8:35 PM 60.8 °F 48.2 °F 63% 29.82 in 10.0 mi SW 12.7 mph 19.6 mph N/A   Clear
8:53 PM 59.0 °F 50.0 °F 72% 29.82 in - WSW 11.5 mph - N/A   Unknown
8:55 PM 59.0 °F 48.2 °F 67% 29.84 in 10.0 mi WSW 16.1 mph 19.6 mph N/A   Clear
9:15 PM 60.8 °F 48.2 °F 63% 29.84 in 10.0 mi WSW 17.3 mph 20.7 mph N/A   Mostly Cloudy
9:35 PM 60.8 °F 46.4 °F 59% 29.85 in 10.0 mi West 10.4 mph - N/A   Mostly Cloudy
9:53 PM 60.1 °F 50.0 °F 69% 29.85 in - WSW 9.2 mph - N/A   Unknown
9:55 PM 60.8 °F 46.4 °F 59% 29.87 in 10.0 mi West 9.2 mph - N/A   Mostly Cloudy
10:15 PM 59.0 °F 46.4 °F 63% 29.88 in 10.0 mi West 13.8 mph - N/A   Mostly Cloudy
10:35 PM 59.0 °F 46.4 °F 63% 29.88 in 10.0 mi West 11.5 mph - N/A   Mostly Cloudy
10:53 PM 59.0 °F 48.9 °F 69% 29.87 in - WSW 11.5 mph - N/A   Unknown
10:55 PM 60.8 °F 46.4 °F 59% 29.88 in 10.0 mi WSW 10.4 mph - N/A   Overcast
11:15 PM 59.0 °F 46.4 °F 63% 29.88 in 10.0 mi West 13.8 mph - N/A   Overcast
11:35 PM 59.0 °F 46.4 °F 63% 29.88 in 10.0 mi West 10.4 mph - N/A   Scattered Clouds
11:53 PM 55.9 °F 48.9 °F 77% 29.87 in - WSW 5.8 mph - N/A   Unknown
11:55 PM 57.2 °F 46.4 °F 67% 29.88 in 10.0 mi West 5.8 mph - N/A   Scattered Clouds